This is the latest recevied weather packets stored in our database for station/object KGRR-WX. If no packets are shown the sender has not sent any weather packets the latest 1 day(s).
| Time | Temp. | Humidity | Pressure | Rain* | Wind** | Luminosity | Snow |
|---|---|---|---|---|---|---|---|
| 1778039105 | 6.67° C | 61% | 981.8 hPa | 0 mm | 1.79 m/s, 257° | - | - |
| 1778037307 | 7.22° C | 60% | 981.6 hPa | 0 mm | 1.34 m/s, 256° | - | - |
| 1778036425 | 7.22° C | 60% | 981.6 hPa | 0 mm | 1.79 m/s, 286° | - | - |
| 1778035507 | 7.78° C | 52% | 981.8 hPa | 0 mm | 2.24 m/s, 272° | - | - |
| 1778034635 | 7.78° C | 49% | 981.8 hPa | 0 mm | 1.79 m/s, 279° | - | - |
| 1778033707 | 7.22° C | 49% | 981.8 hPa | 0 mm | 1.79 m/s, 284° | - | - |
| 1778032817 | 7.78° C | 49% | 981.8 hPa | 0 mm | 1.79 m/s, 278° | - | - |
| 1778031906 | 7.78° C | 42% | 981.6 hPa | 0 mm | 1.79 m/s, 289° | - | - |
| 1778031022 | 8.33° C | 42% | 981.6 hPa | 0 mm | 1.79 m/s, 283° | - | - |
| 1778030107 | 8.33° C | 42% | 981.6 hPa | 0 mm | 2.24 m/s, 286° | - | - |
| 1778029224 | 8.89° C | 42% | 981.6 hPa | 0 mm | 2.24 m/s, 285° | - | - |
| 1778028306 | 9.44° C | 36% | 981.6 hPa | 0 mm | 2.24 m/s, 293° | - | - |
| 1778027413 | 10° C | 36% | 981.7 hPa | 0 mm | 2.68 m/s, 292° | - | - |
| 1778026506 | 10° C | 36% | 981.7 hPa | 0 mm | 3.13 m/s, 294° | - | - |
| 1778025625 | 10.56° C | 36% | 981.7 hPa | 0 mm | 3.58 m/s, 296° | - | - |
| 1778024706 | 10.56° C | 34% | 981.6 hPa | 0 mm | 4.02 m/s, 297° | - | - |
| 1778023820 | 11.11° C | 34% | 981.4 hPa | 0 mm | 4.02 m/s, 294° | - | - |
| 1778022906 | 11.11° C | 34% | 981.4 hPa | 0 mm | 4.47 m/s, 293° | - | - |
| 1778022017 | 11.11° C | 34% | 981.4 hPa | 0 mm | 4.92 m/s, 292° | - | - |
| 1778021106 | 11.67° C | 33% | 981.4 hPa | 0 mm | 4.92 m/s, 290° | - | - |
| 1778020221 | 11.67° C | 35% | 981.6 hPa | 0 mm | 5.36 m/s, 286° | - | - |
| 1778019305 | 11.67° C | 35% | 981.6 hPa | 0 mm | 5.36 m/s, 282° | - | - |
| 1778018423 | 12.22° C | 35% | 981.6 hPa | 0 mm | 5.81 m/s, 281° | - | - |
| 1778017505 | 12.22° C | 35% | 981.5 hPa | 0 mm | 5.81 m/s, 280° | - | - |
| 1778016622 | 11.67° C | 34% | 981 hPa | 0 mm | 6.26 m/s, 279° | - | - |
* Rain latest hour (hover to see other rain measurements)
** Current wind speed in m/s (hover to see current wind gust speed)